Location: Banzenweiler
(49.0929°N, 9.9743°E)
Time: 13:18:49
(UTC+00:00)

Daily predictions for brighter satellites

Satellite Brightness Start Highest point End
(mag) Time Altitude Azimuth Time Altitude Azimuth Time Altitude Azimuth
Meteor 1-27 Rocket 4.1 18:08:14 10° NNW 18:13:45 70° W 18:19:19 10° S
Cosmos 2061 Rocket 4.2 18:08:26 10° SSE 18:14:38 54° E 18:20:52 10° NNE
Cosmos 1937 Rocket 3.6 18:09:38 10° NNW 18:14:55 70° ENE 18:20:11 10° SSE
COSMOS 2428 3.9 18:11:21 10° SSE 18:15:28 21° E 18:19:35 10° NE
Cosmos 1818 4.4 18:11:45 10° S 18:16:21 29° ESE 18:21:00 10° NE
Cosmos 1726 2.7 18:15:29 10° SE 18:17:41 21° E 18:19:55 10° NE
Cosmos 2233 Rocket 4.1 18:12:18 10° SSE 18:18:11 52° E 18:24:09 10° NNE
Cosmos 468 Rocket 4.1 18:14:39 10° SSW 18:19:45 81° WNW 18:24:55 10° NNE
Lacrosse 4 Rocket 2.1 18:15:51 10° NNW 18:19:58 40° NE 18:24:04 10° ESE
Cosmos 1943 Rocket 3.8 18:16:14 10° N 18:20:10 19° NE 18:24:05 10° E
Meteor 2-4 Rocket 3.9 18:14:13 10° N 18:20:11 70° ENE 18:26:04 10° SSE
USA 59 Rocket 1.0 18:17:53 10° NNW 18:21:04 30° NE 18:25:08 10° ESE
Cosmos 2292 Rocket 3.3 18:16:53 10° N 18:21:19 88° W 18:24:46 10° S
Cosmos 372 Rocket 4.1 18:17:36 10° NNW 18:22:48 86° WSW 18:28:00 10° SSE
ADEOS 3.6 18:19:02 10° SSE 18:24:15 86° ENE 18:29:30 10° NNW
Cosmos 841 Rocket 3.5 18:19:49 10° S 18:24:54 58° ESE 18:29:59 10° NNE
Intercosmos 24 4.3 18:22:51 10° NNW 18:26:23 62° W 18:30:12 10° S
PAYLOAD B 4.4 18:22:11 10° SSE 18:27:40 61° ENE 18:33:12 10° N
Cosmos 1328 Rocket 4.3 18:25:16 10° N 18:29:11 33° ENE 18:33:04 10° SE
Meteor 1-4 Rocket 3.7 18:28:18 10° NNE 18:29:58 15° ENE 18:31:20 11° ESE
Aureole 1 Rocket 4.0 18:26:12 10° NNW 18:30:39 47° WSW 18:34:10 10° S
USA 308 1.7 18:30:19 10° NNW 18:31:03 17° NNE 18:31:35 14° ENE
Cosmos 1674 3.3 18:28:49 10° N 18:31:49 30° ENE 18:34:48 10° SE
Terra 3.9 18:31:47 10° ENE 18:33:09 11° NE 18:34:32 10° NE
Cosmos 1743 2.8 18:29:51 10° SSE 18:33:17 45° E 18:36:42 10° NNE
CZ-4B DEB 4.2 18:27:46 10° SSE 18:33:18 83° ENE 18:38:50 10° NNW
SeaSat 1 4.5 18:31:34 10° NNE 18:35:52 31° NW 18:40:08 10° WSW
Tsikada Rocket 4.0 18:29:55 10° N 18:36:12 85° E 18:42:32 10° S
Cosmos 2278 Rocket 3.2 18:31:29 10° NNW 18:36:30 31° NE 18:41:07 12° ESE
Cosmos 540 Rocket 4.4 18:31:43 10° SW 18:36:41 52° WNW 18:41:41 10° NNE
NOSS 2-1 (C) 4.1 18:34:13 10° NNW 18:37:35 38° NE 18:41:25 12° ESE
Kosmos-1783 4.5 18:36:55 10° SSE 18:38:14 13° SE 18:38:14 13° SE
Meteor 1-18 Rocket 4.3 18:32:55 10° N 18:38:54 76° ENE 18:44:47 10° SSE
CZ-4B R/B 2.7 18:37:14 10° SSE 18:40:58 80° ENE 18:44:57 10° NNW
CZ-4B R/B 3.3 18:35:36 10° SSE 18:40:59 58° ENE 18:46:17 10° N
Genesis I 3.1 18:37:38 10° SW 18:41:04 72° NW 18:44:35 10° NE
Iridium 4 Rocket 2.9 18:36:51 10° N 18:41:06 65° E 18:45:12 10° SSE
Cosmos 2016 Rocket 4.3 18:38:02 10° SSW 18:44:06 73° W 18:50:15 10° N
Resurs 1-3 4.3 18:40:51 10° S 18:45:06 57° W 18:49:24 10° NNW
USA 290 3.9 18:42:59 10° N 18:45:26 19° NE 18:46:59 15° E
TSX-5 3.6 18:43:24 10° NNW 18:46:27 45° NE 18:48:41 16° ESE
CARTOSAT-1 3.5 18:42:34 10° SSE 18:46:46 63° ENE 18:50:59 10° N
SPOT 5 4.0 18:45:11 13° ESE 18:48:17 25° ENE 18:51:58 10° N
SPOT 1/Viking Rocket 4.0 18:43:29 10° S 18:48:38 66° WSW 18:53:48 10° NNW
NOSS 8 (A) 4.4 18:47:25 10° SW 18:51:28 84° SE 18:54:39 10° NE
ATLAS 2AS CENTAUR R/B 4.0 18:46:36 10° WSW 18:53:28 44° NW 19:00:07 10° NE
USA 306 3.9 18:52:07 10° S 18:54:09 17° SE 18:54:09 17° SE
ATLAS CENTAUR R/B 3.9 18:51:29 10° WNW 18:56:11 40° SW 19:03:14 10° SSE
USA 215 4.4 18:52:33 10° E 18:57:04 19° ESE 19:01:35 10° SSE
ARGOS Delta rocket 4.1 18:52:03 10° S 18:57:15 81° WSW 19:02:12 10° NNW
Cosmos 1151 Rocket 3.8 18:53:08 10° NNW 18:57:19 52° W 19:01:26 10° S
MOS 1-B 4.4 18:52:22 10° SSE 18:58:04 64° ENE 19:03:49 10° N
Okean O Rocket 1.9 18:54:28 12° SE 18:58:23 49° ENE 19:02:41 10° N
Cosmos 2360 Rocket 3.0 18:52:51 10° SW 18:58:24 56° NW 19:03:58 10° NNE
Cosmos 1340 2.6 18:57:15 10° SSW 19:00:30 69° WNW 19:03:46 10° N
USA 186 1.8 18:58:49 10° S 19:02:00 79° WSW 19:05:15 10° NNW
Resurs 01 Rocket 1.6 18:58:30 10° SSE 19:02:57 89° W 19:07:24 10° NNW
Cosmos 2237 Rocket 3.3 19:04:46 16° SE 19:07:10 21° E 19:11:17 10° NE
GRACE-FO 2 4.5 19:03:46 10° SSE 19:07:15 59° E 19:10:45 10° N
Cosmos 2322 Rocket 3.6 19:02:03 10° WSW 19:07:26 41° NW 19:12:50 10° NNE
Helios 1A 3.6 19:04:54 10° N 19:08:55 57° WNW 19:12:53 10° SSW
MOS 1 Rocket 4.4 19:06:49 19° ESE 19:09:23 30° ENE 19:13:52 10° N
Cosmos 1814 Rocket 4.2 19:06:09 10° S 19:11:14 49° ESE 19:16:19 10° NNE
ACS3 Solar Sail 2.0 19:05:09 10° SSE 19:11:21 61° ENE 19:17:39 10° N
BlueWalker 3 1.8 19:09:53 10° WNW 19:13:39 82° NNE 19:15:32 28° ESE
NOSS 2-1 (E) 3.5 19:09:58 10° NW 19:13:40 69° NE 19:16:32 23° SE
Cosmos 44 Rocket 3.6 19:09:11 10° NW 19:13:54 62° WSW 19:17:36 16° SSE
Okean-O 3.1 19:12:12 22° SE 19:14:35 42° ENE 19:18:45 10° N
Cosmos 1515 Rocket 3.9 19:11:07 10° N 19:15:17 45° ENE 19:17:32 24° SE
Cosmos 2333 Rocket 3.4 19:09:51 10° SW 19:15:23 47° NW 19:20:58 10° NNE
Feng Yun 1-1 Rocket 4.4 19:10:49 10° SSE 19:16:34 82° WSW 19:22:28 10° NNW
Cosmos 2219 Rocket 2.6 19:13:33 10° SW 19:19:13 69° WNW 19:24:55 10° NNE
Sich 1 4.5 19:20:25 20° ENE 19:20:25 20° ENE 19:23:07 10° NE
CSL-04 Rocket 3.8 19:17:47 10° S 19:23:10 76° WSW 19:28:32 10° NNW
NOSS 2-1 (D) 3.4 19:20:00 10° NW 19:23:42 86° NE 19:26:15 27° SE
BREEZE-M DEB (TANK) 1.7 19:22:43 10° WSW 19:24:45 71° SSE 19:25:16 49° E
Cosmos 1842 2.9 19:22:04 10° N 19:25:43 90° E 19:27:54 22° S
Cosmos 1766 Rocket 3.7 19:28:01 10° SSW 19:32:20 73° W 19:36:44 10° N
USA 267 3.7 19:29:00 18° E 19:33:48 55° NNE 19:40:10 10° WNW
Cosmos 1500 Rocket 4.4 19:34:23 30° E 19:34:23 30° E 19:38:10 10° NNE
DELTA 2 DEB (DPAF) 4.3 19:30:55 10° NNE 19:34:56 43° E 19:36:00 36° SE
SWARM A 4.4 19:34:27 45° SE 19:35:13 57° E 19:38:41 10° N
Cosmos 1980 4.2 19:30:25 10° S 19:35:33 37° ESE 19:40:44 10° NE
Cosmos 2369 Rocket 4.1 19:33:21 10° N 19:37:09 18° NE 19:39:53 13° ENE
BREEZE-M R/B 4.1 19:33:30 10° W 19:38:04 85° S 19:49:01 20° ESE
Meteor 2-17 Rocket 4.5 19:32:51 10° NNW 19:38:57 82° W 19:44:32 12° S
Meteor 1-13 Rocket 4.3 19:33:53 10° N 19:39:48 66° ENE 19:43:01 27° SSE
Cosmos 2322 3.7 19:34:20 10° SSW 19:40:00 82° WNW 19:45:41 10° NNE
USA 276 1.9 19:38:54 10° W 19:41:31 69° NW 19:41:31 69° NW
USA 32 4.4 19:37:02 10° N 19:42:05 45° ENE 19:43:41 35° ESE
Cosmos 1400 Rocket 4.3 19:39:05 10° NNW 19:42:35 34° W 19:46:02 10° SSW
Spot 2 Rocket 4.2 19:41:51 31° E 19:43:06 35° ENE 19:47:39 10° N
MOS 1 4.2 19:42:10 23° SSE 19:45:49 84° ENE 19:51:33 10° NNW
PSLV R/B 3.7 19:44:57 36° S 19:46:17 74° WSW 19:49:53 10° NNW
Cosmos 1707 2.9 19:43:43 10° NNW 19:47:14 60° W 19:48:45 30° SSW
Cosmos 1315 Rocket 2.9 19:44:04 10° N 19:47:57 50° ENE 19:48:16 49° E
CZ-4 R/B 3.9 19:45:34 10° SW 19:48:17 19° W 19:51:04 10° NW
Meteor 2-10 4.1 19:44:16 17° S 19:48:32 64° E 19:54:10 10° NNE
Cosmos 1733 2.7 19:49:19 71° ESE 19:49:25 71° E 19:52:52 10° NNE
In-Cosmos 22 4.1 19:44:14 10° N 19:50:00 82° ENE 19:53:04 29° SSE
Cosmos 1570 Rocket 4.3 19:49:52 38° SE 19:51:00 43° ESE 19:55:59 10° NE
Cosmos 1408 Rocket 3.6 19:50:27 47° SE 19:51:21 57° E 19:55:40 10° NNE
Cosmos 1536 2.7 19:55:08 30° SSW 19:56:55 78° WNW 20:00:45 10° N
Lacrosse 4 Rocket 3.1 19:54:18 10° NW 19:58:05 29° WSW 20:00:25 18° SSW
COSMOS 2428 2.9 19:53:23 10° SW 19:59:05 74° WNW 20:04:51 10° NNE
Cosmos 1818 4.1 19:54:11 10° SW 19:59:35 60° NW 20:05:02 10° NE
Cosmos 2195 Rocket 4.4 19:55:37 10° N 20:01:43 65° ENE 20:03:57 39° SE
Nadezhda 4 Rocket 4.0 19:55:27 10° N 20:01:43 85° W 20:05:35 25° S
Meteor 1-23 Rocket 4.3 19:56:11 10° N 20:01:46 60° ENE 20:03:21 44° SE
Meteor 1-4 Rocket 4.0 19:59:38 10° NW 20:01:48 22° W 20:02:22 20° WSW
Cosmos 1356 Rocket 4.2 19:57:47 10° NNW 20:01:51 50° W 20:03:51 27° SSW
Cosmos 1092 Rocket 4.1 19:57:38 10° N 20:03:52 57° ENE 20:05:51 41° SE
SL-16 R/B 4.3 20:07:19 11° ENE 20:07:19 11° ENE 20:07:44 10° ENE
Cosmos 1943 Rocket 2.0 19:59:15 10° NNW 20:04:48 80° ENE 20:06:28 47° SE
SL-14 R/B 3.8 20:06:03 10° N 20:09:04 44° NE 20:09:04 44° NE
Terra 1.7 20:09:10 58° ESE 20:09:51 67° ENE 20:14:32 10° N
USA 59 Rocket 0.9 20:06:52 10° NW 20:10:37 43° SW 20:11:54 35° SSW
Cosmos 2026 Rocket 4.0 20:04:25 10° N 20:10:40 65° ENE 20:12:32 45° SE
Cosmos 1464 Rocket 4.2 20:05:42 10° SSW 20:11:59 73° W 20:18:23 10° N
Cosmos 158 Rocket 4.0 20:13:21 52° E 20:13:21 52° E 20:17:35 10° NNE
Cosmos 1805 Rocket 3.6 20:14:27 58° ENE 20:14:27 58° ENE 20:18:15 10° NNE
Meteor 1-11 Rocket 3.6 20:09:42 18° SSW 20:14:00 87° W 20:19:37 10° NNE
CRYOSAT 2 4.2 20:10:12 10° N 20:15:08 80° E 20:16:10 56° S
Ariane Rocket 3.1 20:14:46 52° E 20:15:18 55° ENE 20:20:15 10° N
Cosmos 1125 Rocket 3.5 20:12:17 10° NNW 20:17:29 79° WSW 20:18:45 52° S
SPOT 3 Rocket 3.6 20:17:15 53° E 20:17:48 55° ENE 20:22:50 10° N
Cosmos 1634 Rocket 4.2 20:17:05 46° ESE 20:18:01 50° E 20:24:05 10° NNE
USA 290 3.8 20:16:58 10° NW 20:19:43 31° W 20:19:43 31° W
Cosmos 839 Rocket 4.4 20:11:27 10° SSW 20:20:11 69° ESE 20:27:07 10° NE
ERS-1 Rocket 2.9 20:19:35 55° S 20:20:43 85° WSW 20:25:47 10° NNW
Cosmos 2278 Rocket 2.6 20:15:22 10° NW 20:20:54 56° WSW 20:22:57 36° S
Meteor 2-9 Rocket 4.0 20:20:43 33° SSW 20:23:10 85° WNW 20:28:37 10° N
BREEZE-M DEB (TANK) 4.2 20:20:09 10° W 20:23:41 89° S 20:26:06 41° ESE
SPOT 5 3.6 20:24:19 32° SSW 20:26:05 47° W 20:30:31 10° NNW
IRS-1A Rocket 4.5 20:25:48 40° S 20:27:57 71° WSW 20:33:43 10° NNW
Cosmos 1707 Rocket 4.4 20:26:02 10° N 20:29:24 38° NE 20:29:24 38° NE
Cosmos 2034 Rocket 4.0 20:26:34 22° SSW 20:30:44 77° W 20:36:58 10° N
Celestis-02/Orion 38 4.3 20:28:46 10° NNE 20:33:56 75° ESE 20:34:00 74° SE
Okean O Rocket 3.9 20:31:48 11° SW 20:34:55 21° W 20:38:16 10° NW
Cosmos 1627 Rocket 4.4 20:29:10 10° N 20:35:31 88° W 20:37:10 53° S
Cosmos 2208 Rocket 3.9 20:35:48 74° E 20:35:48 74° E 20:41:03 10° NNE
NOSS 0 Rocket 4.3 20:33:31 10° SW 20:39:44 66° NW 20:45:58 10° NNE
USA 215 3.1 20:34:27 10° ENE 20:40:58 64° SE 20:47:27 10° SW
Cosmos 1656 Rocket 4.0 20:40:37 10° NNW 20:46:09 50° NE 20:46:20 50° ENE
Meteor 1-21 4.1 20:41:21 10° NNW 20:47:07 89° W 20:47:41 74° S
MOS 1 Rocket 4.4 20:45:58 35° SW 20:47:18 42° W 20:52:13 10° NNW
Cosmos 2228 Rocket 3.6 20:42:53 10° N 20:46:31 53° NNE 20:46:31 53° NNE
Meteor 2-12 Rocket 4.4 20:42:21 10° N 20:48:33 87° W 20:49:33 65° S
Cosmos 2237 Rocket 2.3 20:46:17 17° SW 20:50:39 70° WNW 20:56:18 10° NNE
BlueWalker 3 4.2 20:48:20 10° W 20:49:46 18° W 20:49:46 18° W
Cosmos 2297 4.0 20:48:19 10° NNW 20:53:48 51° NE 20:53:48 51° NE
Aureole 3 Rocket 4.5 20:47:44 15° SSW 20:54:08 61° WNW 20:59:34 10° N
ACS3 Solar Sail 3.6 20:50:28 10° SSW 20:55:49 28° W 21:01:14 10° NNW
Sich 1 3.9 20:57:04 44° WNW 20:57:04 44° WNW 21:01:12 10° N
Cosmos 2279 Rocket 3.9 21:06:50 76° E 21:06:50 76° E 21:12:56 10° NNE
BREEZE-M DEB (TANK) 3.3 20:57:03 10° W 21:10:39 88° SSW 21:10:46 86° SE
USA 267 3.1 21:16:21 75° S 21:16:40 76° SW 21:23:15 10° WNW
Cosmos 2369 Rocket 2.5 21:16:35 10° NNW 21:21:39 61° NNE 21:21:39 61° NNE
NOSS 3-3 (A) 4.1 21:25:46 59° NNE 21:25:46 59° NNE 21:31:04 10° NE
SL-16 R/B 3.0 21:49:08 45° NNE 21:49:08 45° NNE 21:53:03 10° NNE
Cosmos 1943 Rocket 4.2 21:44:15 10° WNW 21:47:50 18° W 21:47:58 18° W
Terra 4.1 21:47:52 17° W 21:47:53 17° W 21:50:56 10° NW
NOSS 3-4 (A) 3.7 21:41:20 10° NW 21:47:59 87° NW 21:47:59 87° NW
NOSS 3-4 (C) 3.7 21:41:26 10° NW 21:48:05 87° NNW 21:48:05 87° NNW
Cosmos 2266 Rocket 4.2 21:50:03 10° NNW 21:55:29 67° NW 21:55:29 67° NW
Cosmos 1655 Rocket 4.4 22:10:42 10° NNW 22:15:58 62° NNW 22:15:58 62° NNW
USA 215 3.6 22:17:34 10° ENE 22:23:59 60° NNW 22:30:24 10° W
ATLAS 2AS CENTAUR R/B 4.3 22:33:19 10° NW 22:39:18 30° NNE 22:43:40 16° ENE
Cosmos 2369 Rocket 4.3 23:01:25 10° NW 23:03:25 18° WNW 23:03:25 18° WNW
Cosmos 1980 Rocket 4.3 23:25:49 10° N 23:29:58 21° NE 23:31:54 17° ENE
SL-16 R/B 4.3 23:30:58 18° WNW 23:32:23 20° NW 23:36:30 10° N
